• Processing (Info)

  • MPEC 2013-C48 : 2013 CE82

    The following Minor Planet Electronic Circular may be linked-to from your own Web pages, but must not otherwise be redistributed electronically.

    A form allowing access to any MPEC is at the bottom of this page.


    Read MPEC 2013-C47 Read MPEC 2013-C49


    M.P.E.C. 2013-C48                                Issued 2013 Feb. 11, 17:13 UT
    
         The Minor Planet Electronic Circulars contain information on unusual
             minor planets and routine data on comets.  They are published
       on behalf of Commission 20 of the International Astronomical Union by the
              Minor Planet Center, Smithsonian Astrophysical Observatory,
                              Cambridge, MA 02138, U.S.A.
    
                 Prepared using the Tamkin Foundation Computer Network
    
                                  MPC@CFA.HARVARD.EDU
                URL http://www.minorplanetcenter.net/    ISSN 1523-6714
    
                                       2013 CE82
    
    Observations:
         K13C82E* C2013 02 05.24635 08 43 54.26 +22 19 35.3          20.3 VrEC048G96
         K13C82E  C2013 02 05.25349 08 43 53.47 +22 19 23.1          20.4 VrEC048G96
         K13C82E  C2013 02 05.26066 08 43 52.71 +22 19 10.7          20.2 VrEC048G96
         K13C82E  C2013 02 05.26782 08 43 51.99 +22 18 58.8          20.4 VrEC048G96
         K13C82E  C2013 02 10.43611 08 34 02.532+17 55 14.99         19.7 wLEC048F51
         K13C82E  C2013 02 10.45156 08 33 58.779+17 53 52.22         19.7 wLEC048F51
         K13C82E  C2013 02 10.46701 08 33 55.054+17 52 28.95         19.6 wLEC048F51
         K13C82E  C2013 02 11.12830 08 31 57.03 +16 47 32.1          19.7 RoEC048G48
         K13C82E  C2013 02 11.13178 08 31 56.15 +16 47 10.3          19.7 RoEC048G48
         K13C82E  C2013 02 11.13716 08 31 54.75 +16 46 37.2          19.0 RoEC048G48
    
    Observer details:
    F51 Pan-STARRS 1, Haleakala.  Observers N. Primak, A. Schultz, S. Watters,
        T. Goggia.  Measurer PS1 Science Consortium.  1.8-m Ritchey-Chretien
        + CCD.
    G48 Doc Greiner Research Obs., Rancho Hildalgo.  Observer M. Mills.  0.40-m
        f/10 Schmidt-Cassegrain + CCD.
    G96 Mt. Lemmon Survey.  Observer R. A. Kowalski.  Measurers A. Boattini,
        E. J. Christensen, A. R. Gibbs, A. D. Grauer, R. E. Hill, J. A. Johnson,
        R. A. Kowalski, S. M. Larson, R. H. McNaught.  1.5-m reflector + CCD.
    
    Orbital elements:
    2013 CE82                                                Earth MOID = 0.0114 AU
    Epoch 2013 Apr. 18.0 TT = JDT 2456400.5                 MPC
    M   7.77270              (2000.0)            P               Q
    n   0.34875351     Peri.  241.47602     -0.92791270     +0.36955235
    a   1.9988966      Node   320.15657     -0.30963970     -0.83732078
    e   0.5763945      Incl.    4.39364     -0.20760846     -0.40289574
    P   2.83           H   24.9           G   0.15           U   6
    Residuals in seconds of arc
    130205 G96  0.2+  0.1+    130210 F51  0.1+  0.0     130211 G48  0.1+  0.2-
    130205 G96  0.3-  0.0     130210 F51  0.1-  0.1-    130211 G48  0.2-  0.2+
    130205 G96  0.3-  0.2-    130210 F51  0.0   0.0
    130205 G96  0.3+  0.2+    130211 G48  0.1+  0.0
    
    Ephemeris:
    2013 CE82                a,e,i = 2.00, 0.58, 4                   q = 0.8467
    Date    TT    R. A. (2000) Decl.     Delta      r     Elong.  Phase     V
    2013 01 12    08 52 12.9 +25 32 01   0.3114  1.2830   161.7    13.9    23.7
    ...
    2013 01 27    08 50 32.1 +24 43 13   0.1726  1.1563   173.1     5.9    21.9
    ...
    2013 02 04    08 45 15.3 +22 52 34   0.1068  1.0915   171.1     8.0    20.8
    ...
    2013 02 10    08 35 19.5 +18 31 32   0.06013 1.0451   165.3    13.9    19.7
    2013 02 11    08 32 16.4 +17 02 00   0.05257 1.0376   163.8    15.4    19.4
    2013 02 12    08 28 20.6 +15 02 14   0.04511 1.0302   162.0    17.2    19.1
    ...
    2013 02 18    04 55 02.1 -59 15 45   0.01208 0.9876    86.1    93.2    18.6
    ...
    2013 02 26    21 20 30.6 -37 45 12   0.06461 0.9370    33.6   144.2    26.3
    ...
    2013 03 13    21 12 12.6 -30 19 50   0.1832  0.8687    42.9   128.9    26.5
    
    A. U. Tomatic                (C) Copyright 2013 MPC           M.P.E.C. 2013-C48
    

    Read MPEC 2013-C47 Read MPEC 2013-C49


    MPEC number:

    Enter an MPEC number in one of the following forms:

    • 1997-B01 (the full form)
    • J97B01 (the packed version of the full form)
    • B01 (the abbreviated form)